Imperial, NE

1:02 PM MDT on August 27, 2016 (GMT -0600)
Imperial Municipal

Weather History for KIML - January, 2013

Change the Weather History Date:

Thursday, January 17, 2013

  Actual Average Record
Temperature  
Mean Temperature 37 °F 28 °F  
Max Temperature 50 °F 41 °F 67 °F (1923)
Min Temperature 23 °F 16 °F -27 °F (1930)
Degree Days  
Heating Degree Days 28 37  
Month to date heating degree days 710 629  
Cooling Degree Days 0 0  
Month to date cooling degree days 0 0  
Year to date cooling degree days 0 0  
Moisture  
Dew Point 21 °F    
Average Humidity 55    
Maximum Humidity 74    
Minimum Humidity 36    
Precipitation  
Precipitation 0.00 in 0.01 in 0.39 in (1930)
Sea Level Pressure  
Sea Level Pressure 30.41 in    
Wind  
Wind Speed 8 mph (West)    
Max Wind Speed 16 mph    
Max Gust Speed 21 mph    
Visibility 10 miles    
Events      
T = Trace of Precipitation, MM = Missing Value Source: NWS Daily Summary

Daily Weather History Graph

Daily Weather History Graph

Search for Another Location

Airport or City:

Trip Planner

Search our weather history database for the weather conditions in past years. The results will help you decide how hot, cold, wet, or windy it might be!

Date:

Astronomy

Jan. 17, 2013 Rise Set
Actual Time 7:06 AM MST 4:47 PM MST
Civil Twilight 6:36 AM MST 5:16 PM MST
Nautical Twilight 6:03 AM MST 5:50 PM MST
Astronomical Twilight 5:30 AM MST 6:23 PM MST
Moon 10:12 AM MST (1/17) 11:42 PM MST (1/17)
Length of Visible Light 10h 39m
Length of Day
9h 40m
Waxing Crescent, 38% of the Moon is Illuminated
Jan 17
Waxing Crescent
Jan 18
First Quarter
Jan 26
Full
Feb 3
Last Quarter
Feb 10
New

Hourly Weather History & Observations

Time (MST) Temp. Windchill Dew Point Humidity Pressure Visibility Wind Dir Wind Speed Gust Speed Precip Events Conditions
12:53 AM 30.0 °F 20.0 °F 19.9 °F 66% 30.40 in 10.0 mi WNW 12.7 mph - N/A   Clear
1:53 AM 28.0 °F 19.3 °F 19.9 °F 72% 30.42 in 10.0 mi WNW 9.2 mph - N/A   Clear
2:53 AM 28.0 °F 19.3 °F 19.0 °F 69% 30.43 in 10.0 mi WNW 9.2 mph - N/A   Clear
3:53 AM 26.1 °F 16.8 °F 18.0 °F 71% 30.45 in 10.0 mi WNW 9.2 mph - N/A   Clear
4:53 AM 24.8 °F 16.9 °F 17.6 °F 74% 30.38 in 10.0 mi NW 6.9 mph - N/A   Clear
5:53 AM 24.1 °F 16.0 °F 17.1 °F 75% 30.48 in 10.0 mi WNW 6.9 mph - N/A   Clear
6:53 AM 26.1 °F 14.5 °F 17.1 °F 69% 30.49 in 10.0 mi NW 13.8 mph - N/A   Clear
7:53 AM 27.0 °F 20.5 °F 17.1 °F 66% 30.51 in 10.0 mi WNW 5.8 mph - N/A   Clear
8:53 AM 30.9 °F 23.5 °F 18.0 °F 59% 30.53 in 10.0 mi NW 8.1 mph - N/A   Clear
9:53 AM 36.0 °F 30.3 °F 19.9 °F 52% 30.53 in 10.0 mi NW 6.9 mph - N/A   Clear
10:53 AM 39.9 °F 35.1 °F 23.0 °F 51% 30.50 in 10.0 mi West 6.9 mph - N/A   Clear
11:53 AM 42.1 °F 37.1 °F 25.0 °F 51% 30.46 in 10.0 mi West 8.1 mph - N/A   Clear
12:53 PM 46.0 °F 43.1 °F 26.1 °F 46% 30.44 in 10.0 mi WNW 5.8 mph - N/A   Clear
1:53 PM 48.0 °F - 25.0 °F 41% 30.41 in 10.0 mi West 3.5 mph - N/A   Clear
2:53 PM 48.9 °F - 23.0 °F 36% 30.39 in 10.0 mi Calm Calm - N/A   Clear
3:53 PM 46.9 °F - 24.1 °F 41% 30.39 in 10.0 mi Calm Calm - N/A   Clear
4:53 PM 39.9 °F 35.8 °F 24.1 °F 53% 30.40 in 10.0 mi South 5.8 mph - N/A   Clear
5:53 PM 30.9 °F 25.2 °F 23.0 °F 72% 30.40 in 10.0 mi South 5.8 mph - N/A   Clear
6:53 PM 33.1 °F 26.9 °F 23.0 °F 66% 30.38 in 10.0 mi South 6.9 mph - N/A   Clear
7:53 PM 37.0 °F 29.8 °F 21.9 °F 54% 30.35 in 10.0 mi South 10.4 mph - N/A   Clear
8:53 PM 34.0 °F 28.0 °F 21.9 °F 61% 30.33 in 10.0 mi SW 6.9 mph - N/A   Clear
9:53 PM 34.0 °F 25.0 °F 21.9 °F 61% 30.29 in 10.0 mi SW 12.7 mph - N/A   Clear
10:53 PM 34.0 °F 26.0 °F 23.0 °F 64% 30.26 in 10.0 mi SW 10.4 mph - N/A   Clear
11:53 PM 30.9 °F 22.2 °F 21.9 °F 69% 30.23 in 10.0 mi WSW 10.4 mph - N/A   Clear